When you browse on this site, cookies collect data to enhance your experience and personalize the content and advertising you see.
Visit our Privacy Policy to learn more. By continuing to use the site, you agree to this use of cookies and data.
  • In Hungary
  • List of Countries
  • For 7 days
  • Water Temperature
  • Satellite Maps
  • Weather Map
  • News
  • Weather Widgets
  • user-avatar
    Login

    Hourly Weather Gendringen

    Today, 19 June, Wednesday

    Time Temperature Precipitation Wind Pressure Humidity
    00:00 +18°C° 0 mm 2 mps 756 mmHg 90%
    01:00 +18°C° 0 mm 2 mps 756 mmHg 90%
    02:00 +18°C° 0 mm 2 mps 755 mmHg 89%
    03:00 +19°C° 0 mm 1 mps 755 mmHg 89%
    04:00 +19°C° 0 mm 2 mps 755 mmHg 85%
    05:00 +20°C° 0 mm 2 mps 754 mmHg 81%
    06:00 +23°C° 0 mm 2 mps 754 mmHg 74%
    07:00 +24°C° 0 mm 3 mps 754 mmHg 69%
    08:00 +26°C° 0 mm 3 mps 754 mmHg 63%
    09:00 +28°C° 0 mm 4 mps 754 mmHg 58%
    10:00 +27°C° 0 mm 4 mps 754 mmHg 61%
    11:00 +27°C° 0 mm 4 mps 754 mmHg 64%
    12:00 +26°C° 0 mm 5 mps 754 mmHg 67%
    13:00 +27°C° 0 mm 4 mps 753 mmHg 61%
    14:00 +28°C° 0 mm 4 mps 753 mmHg 56%
    15:00 +29°C° 0 mm 4 mps 753 mmHg 50%
    16:00 +28°C° 0.3 mm 4 mps 753 mmHg 57%
    17:00 +26°C° 0.3 mm 5 mps 753 mmHg 64%
    18:00 +25°C° 0.3 mm 5 mps 753 mmHg 71%
    19:00 +22°C° 0.2 mm 4 mps 753 mmHg 75%
    20:00 +21°C° 0.2 mm 4 mps 754 mmHg 79%
    21:00 +20°C° 0.2 mm 3 mps 754 mmHg 83%
    22:00 +19°C° 0.5 mm 4 mps 754 mmHg 86%
    23:00 +18°C° 0.5 mm 4 mps 754 mmHg 90%

    Tomorrow, 20 June, Thursday

    Time Temperature Precipitation Wind Pressure Humidity
    00:00 +18°C° 0.5 mm 4 mps 754 mmHg 94%
    01:00 +17°C° 0 mm 4 mps 754 mmHg 95%
    02:00 +17°C° 0 mm 4 mps 754 mmHg 95%
    03:00 +15°C° 0 mm 4 mps 754 mmHg 96%
    04:00 +17°C° 0 mm 4 mps 755 mmHg 95%
    05:00 +17°C° 0 mm 4 mps 755 mmHg 93%
    06:00 +17°C° 0 mm 4 mps 756 mmHg 92%
    07:00 +18°C° 0.2 mm 4 mps 756 mmHg 88%
    08:00 +19°C° 0.2 mm 4 mps 756 mmHg 85%
    09:00 +19°C° 0.2 mm 5 mps 756 mmHg 81%
    10:00 +20°C° 0.5 mm 5 mps 757 mmHg 78%
    11:00 +21°C° 0.5 mm 6 mps 757 mmHg 75%
    12:00 +21°C° 0.5 mm 7 mps 757 mmHg 72%
    13:00 +21°C° 0.2 mm 7 mps 757 mmHg 69%
    14:00 +21°C° 0.2 mm 6 mps 757 mmHg 66%
    15:00 +22°C° 0.2 mm 6 mps 757 mmHg 63%
    16:00 +21°C° 0 mm 5 mps 758 mmHg 65%
    17:00 +20°C° 0 mm 5 mps 758 mmHg 66%
    18:00 +19°C° 0 mm 4 mps 759 mmHg 68%
    19:00 +17°C° 0 mm 4 mps 759 mmHg 71%
    20:00 +14°C° 0 mm 3 mps 759 mmHg 73%
    21:00 +13°C° 0 mm 3 mps 760 mmHg 76%
    22:00 +12°C° 0 mm 3 mps 760 mmHg 79%
    23:00 +13°C° 0 mm 2 mps 760 mmHg 82%

    Day after tomorrow, 21 June, Friday

    Time Temperature Precipitation Wind Pressure Humidity
    00:00 +12°C° 0 mm 2 mps 760 mmHg 85%
    01:00 +12°C° 0 mm 2 mps 760 mmHg 87%
    02:00 +12°C° 0 mm 2 mps 761 mmHg 89%
    03:00 +10°C° 0 mm 2 mps 761 mmHg 90%
    04:00 +11°C° 0 mm 3 mps 761 mmHg 87%
    05:00 +13°C° 0 mm 3 mps 761 mmHg 84%
    06:00 +14°C° 0 mm 4 mps 761 mmHg 81%
    07:00 +15°C° 0 mm 4 mps 762 mmHg 77%
    08:00 +17°C° 0 mm 4 mps 762 mmHg 73%
    09:00 +19°C° 0 mm 4 mps 762 mmHg 69%
    10:00 +19°C° 0.2 mm 4 mps 762 mmHg 68%
    11:00 +19°C° 0.2 mm 4 mps 762 mmHg 67%
    12:00 +20°C° 0.2 mm 4 mps 762 mmHg 66%
    13:00 +20°C° 0 mm 4 mps 763 mmHg 62%
    14:00 +21°C° 0 mm 3 mps 763 mmHg 59%
    15:00 +21°C° 0 mm 3 mps 763 mmHg 55%
    16:00 +21°C° 0 mm 3 mps 763 mmHg 60%
    17:00 +20°C° 0 mm 3 mps 763 mmHg 64%
    18:00 +19°C° 0 mm 3 mps 763 mmHg 69%
    19:00 +17°C° 0 mm 3 mps 764 mmHg 73%
    20:00 +14°C° 0 mm 3 mps 764 mmHg 78%
    21:00 +13°C° 0 mm 3 mps 765 mmHg 82%
    22:00 +12°C° 0 mm 3 mps 765 mmHg 85%
    23:00 +11°C° 0 mm 3 mps 765 mmHg 88%

    22 June, Saturday

    Time Temperature Precipitation Wind Pressure Humidity
    00:00 +11°C° 0 mm 3 mps 765 mmHg 91%
    01:00 +11°C° 0 mm 3 mps 765 mmHg 92%
    02:00 +10°C° 0 mm 3 mps 765 mmHg 93%
    03:00 +10°C° 0 mm 3 mps 765 mmHg 94%
    04:00 +11°C° 0 mm 3 mps 765 mmHg 89%
    05:00 +12°C° 0 mm 3 mps 765 mmHg 85%
    06:00 +14°C° 0 mm 4 mps 765 mmHg 80%
    07:00 +15°C° 0 mm 4 mps 765 mmHg 74%
    08:00 +18°C° 0 mm 4 mps 765 mmHg 69%
    09:00 +19°C° 0 mm 4 mps 765 mmHg 64%
    10:00 +20°C° 0 mm 4 mps 765 mmHg 61%
    11:00 +21°C° 0 mm 4 mps 765 mmHg 59%
    12:00 +22°C° 0 mm 5 mps 764 mmHg 57%
    13:00 +22°C° 0 mm 4 mps 764 mmHg 57%
    14:00 +22°C° 0 mm 4 mps 764 mmHg 57%
    15:00 +23°C° 0 mm 4 mps 764 mmHg 57%
    16:00 +22°C° 0 mm 4 mps 763 mmHg 61%
    17:00 +21°C° 0 mm 4 mps 763 mmHg 65%
    18:00 +21°C° 0 mm 4 mps 763 mmHg 70%
    19:00 +19°C° 0 mm 4 mps 764 mmHg 73%
    20:00 +18°C° 0 mm 4 mps 764 mmHg 76%
    21:00 +15°C° 0 mm 4 mps 764 mmHg 79%
    22:00 +15°C° 0 mm 4 mps 764 mmHg 81%
    23:00 +14°C° 0 mm 4 mps 764 mmHg 83%

    23 June, Sunday

    Time Temperature Precipitation Wind Pressure Humidity
    00:00 +14°C° 0 mm 4 mps 764 mmHg 85%
    01:00 +11°C° 0 mm 3 mps 764 mmHg 89%
    02:00 +10°C° 0 mm 3 mps 764 mmHg 89%
    03:00 +10°C° 0 mm 3 mps 764 mmHg 89%
    04:00 +11°C° 0 mm 3 mps 764 mmHg 87%
    05:00 +12°C° 0 mm 3 mps 765 mmHg 85%
    06:00 +14°C° 0 mm 3 mps 765 mmHg 83%
    07:00 +16°C° 0 mm 3 mps 765 mmHg 77%
    08:00 +18°C° 0 mm 4 mps 765 mmHg 71%
    09:00 +20°C° 0 mm 4 mps 765 mmHg 65%
    10:00 +20°C° 0 mm 4 mps 765 mmHg 62%
    11:00 +21°C° 0 mm 5 mps 765 mmHg 59%
    12:00 +22°C° 0 mm 5 mps 765 mmHg 56%
    13:00 +22°C° 0 mm 5 mps 764 mmHg 56%
    14:00 +21°C° 0 mm 5 mps 764 mmHg 56%
    15:00 +21°C° 0 mm 5 mps 764 mmHg 55%
    16:00 +21°C° 0 mm 5 mps 764 mmHg 60%
    17:00 +20°C° 0 mm 4 mps 764 mmHg 65%
    18:00 +20°C° 0 mm 4 mps 764 mmHg 69%
    19:00 +18°C° 0 mm 4 mps 764 mmHg 71%
    20:00 +17°C° 0 mm 4 mps 765 mmHg 72%
    21:00 +14°C° 0 mm 4 mps 765 mmHg 73%
    22:00 +14°C° 0 mm 4 mps 765 mmHg 78%
    23:00 +14°C° 0 mm 4 mps 765 mmHg 83%

    24 June, Monday

    Time Temperature Precipitation Wind Pressure Humidity
    00:00 +13°C° 0 mm 4 mps 765 mmHg 87%
    01:00 +13°C° 0 mm 4 mps 765 mmHg 89%
    02:00 +13°C° 0 mm 3 mps 765 mmHg 91%
    03:00 +13°C° 0 mm 3 mps 764 mmHg 93%
    04:00 +14°C° 0 mm 4 mps 765 mmHg 89%
    05:00 +15°C° 0 mm 4 mps 765 mmHg 86%
    06:00 +16°C° 0 mm 5 mps 765 mmHg 82%
    07:00 +17°C° 0 mm 5 mps 765 mmHg 78%
    08:00 +20°C° 0 mm 5 mps 765 mmHg 74%
    09:00 +21°C° 0 mm 4 mps 764 mmHg 70%
    10:00 +23°C° 0 mm 5 mps 764 mmHg 66%
    11:00 +26°C° 0 mm 5 mps 764 mmHg 61%
    12:00 +27°C° 0 mm 5 mps 764 mmHg 56%
    13:00 +28°C° 0 mm 5 mps 764 mmHg 56%
    14:00 +28°C° 0 mm 5 mps 763 mmHg 57%
    15:00 +28°C° 0 mm 5 mps 763 mmHg 57%
    16:00 +27°C° 0 mm 5 mps 763 mmHg 61%
    17:00 +26°C° 0 mm 6 mps 763 mmHg 65%
    18:00 +24°C° 0 mm 6 mps 763 mmHg 69%
    19:00 +23°C° 0 mm 5 mps 764 mmHg 70%
    20:00 +22°C° 0 mm 5 mps 764 mmHg 72%
    21:00 +21°C° 0 mm 4 mps 764 mmHg 73%
    22:00 +21°C° 0 mm 4 mps 764 mmHg 74%
    23:00 +20°C° 0 mm 4 mps 764 mmHg 76%
    Show more